QPF
0.02 0.01 0.05 0.06 0.04 0.02 0.01 0.01 0.01 0.01 0.02 0.02 0.01 0.01 0.01 0.01 0.02 0.03 0.02 0.04 0.05 0.05 0.09 0.14 0.11 0.09 0.10 0.11 0.13 0.12 0.14 0.18 0.20 0.18 0.16 0.16 0.16 0.16 0.19 0.18 0.11 0.10 0.12
0.01 0.00 0.01 0.03 0.04 0.03 0.02 0.01 0.01 0.01 0.01 0.01 0.01 0.01 0.01 0.01 0.01 0.02 0.02 0.07 0.12 0.10 0.14 0.15 0.10 0.10 0.09 0.10 0.13 0.16 0.19 0.21 0.22 0.22 0.16 0.14 0.17 0.17 0.17 0.15 0.10 0.09 0.09
0.01 0.00 0.00 0.01 0.03 0.03 0.01 0.01 0.01 0.01 0.01 0.01 0.01 0.01 0.01 0.01 0.01 0.01 0.02 0.09 0.17 0.19 0.19 0.12 0.08 0.09 0.09 0.11 0.20 0.25 0.24 0.25 0.20 0.18 0.17 0.12 0.12 0.15 0.15 0.14 0.12 0.11 0.08
0.01 0.01 0.00 0.01 0.02 0.02 0.01 0.00 0.00 0.01 0.00 0.00 0.01 0.01 0.01 0.01 0.01 0.01 0.02 0.05 0.13 0.21 0.17 0.10 0.10 0.09 0.09 0.13 0.17 0.20 0.22 0.19 0.15 0.14 0.13 0.08 0.08 0.12 0.11 0.10 0.12 0.11 0.08
0.01 0.01 0.01 0.01 0.02 0.01 0.01 0.01 0.00 0.00 0.00 0.00 0.01 0.01 0.01 0.02 0.01 0.00 0.01 0.02 0.05 0.10 0.13 0.12 0.11 0.10 0.11 0.13 0.11 0.16 0.16 0.13 0.14 0.11 0.09 0.07 0.07 0.10 0.10 0.10 0.11 0.11 0.08
0.02 0.01 0.01 0.02 0.02 0.01 0.01 0.01 0.00 0.00 0.01 0.01 0.00 0.00 0.01 0.01 0.01 0.01 0.01 0.01 0.02 0.03 0.05 0.08 0.09 0.12 0.16 0.14 0.09 0.10 0.13 0.15 0.16 0.09 0.08 0.08 0.07 0.08 0.08 0.08 0.11 0.10 0.07
0.02 0.01 0.01 0.02 0.02 0.01 0.01 0.00 0.00 0.00 0.01 0.01 0.00 0.00 0.01 0.01 0.01 0.01 0.01 0.02 0.02 0.02 0.03 0.05 0.07 0.11 0.10 0.08 0.08 0.09 0.12 0.14 0.11 0.10 0.10 0.10 0.07 0.09 0.09 0.08 0.08 0.08 0.06
0.02 0.02 0.03 0.02 0.02 0.01 0.01 0.00 0.00 0.01 0.01 0.01 0.01 0.01 0.01 0.01 0.01 0.01 0.01 0.01 0.02 0.02 0.03 0.03 0.04 0.05 0.04 0.05 0.06 0.08 0.10 0.10 0.09 0.11 0.11 0.12 0.11 0.10 0.10 0.08 0.08 0.06 0.05
0.01 0.02 0.02 0.02 0.02 0.02 0.01 0.01 0.01 0.01 0.01 0.01 0.02 0.02 0.01 0.01 0.01 0.01 0.01 0.01 0.01 0.02 0.03 0.03 0.03 0.04 0.04 0.04 0.06 0.08 0.09 0.10 0.09 0.10 0.12 0.12 0.13 0.12 0.09 0.07 0.08 0.06 0.04
0.01 0.02 0.02 0.01 0.02 0.02 0.01 0.01 0.01 0.01 0.01 0.01 0.01 0.02 0.02 0.01 0.01 0.01 0.01 0.01 0.01 0.03 0.04 0.04 0.03 0.04 0.05 0.07 0.08 0.09 0.12 0.10 0.06 0.07 0.11 0.12 0.13 0.11 0.08 0.07 0.07 0.06 0.04
0.03 0.02 0.01 0.01 0.01 0.01 0.02 0.02 0.02 0.01 0.01 0.01 0.01 0.02 0.02 0.01 0.01 0.02 0.01 0.01 0.02 0.05 0.05 0.04 0.03 0.04 0.06 0.08 0.11 0.11 0.10 0.08 0.06 0.06 0.08 0.10 0.12 0.11 0.08 0.06 0.06 0.05 0.03
0.04 0.02 0.01 0.00 0.00 0.01 0.01 0.01 0.01 0.01 0.01 0.02 0.02 0.02 0.02 0.02 0.02 0.01 0.03 0.03 0.10 0.13 0.10 0.08 0.05 0.05 0.06 0.09 0.15 0.17 0.13 0.09 0.09 0.08 0.08 0.09 0.11 0.10 0.08 0.06 0.05 0.04 0.03
0.07 0.05 0.02 0.01 0.01 0.00 0.01 0.01 0.01 0.01 0.01 0.01 0.01 0.02 0.02 0.03 0.03 0.02 0.02 0.05 0.15 0.23 0.18 0.09 0.06 0.05 0.06 0.09 0.15 0.16 0.15 0.13 0.12 0.10 0.09 0.10 0.11 0.10 0.08 0.07 0.06 0.05 0.04
0.11 0.07 0.04 0.03 0.02 0.02 0.01 0.01 0.01 0.01 0.01 0.02 0.02 0.01 0.02 0.02 0.02 0.05 0.06 0.07 0.17 0.34 0.39 0.21 0.09 0.05 0.06 0.07 0.11 0.12 0.12 0.13 0.11 0.11 0.11 0.11 0.11 0.09 0.08 0.09 0.07 0.06 0.05
0.07 0.05 0.06 0.07 0.03 0.02 0.01 0.01 0.01 0.02 0.02 0.03 0.03 0.02 0.02 0.02 0.02 0.06 0.10 0.13 0.19 0.29 0.42 0.36 0.17 0.08 0.07 0.08 0.10 0.10 0.11 0.10 0.12 0.11 0.13 0.11 0.10 0.08 0.08 0.08 0.08 0.06 0.06
0.03 0.02 0.04 0.09 0.03 0.01 0.02 0.02 0.02 0.02 0.03 0.03 0.02 0.01 0.02 0.02 0.03 0.06 0.12 0.15 0.17 0.21 0.30 0.29 0.17 0.09 0.07 0.10 0.09 0.08 0.15 0.12 0.10 0.16 0.21 0.13 0.09 0.09 0.08 0.07 0.07 0.06 0.05
0.02 0.02 0.02 0.01 0.01 0.01 0.02 0.02 0.02 0.03 0.03 0.02 0.03 0.03 0.02 0.03 0.04 0.07 0.10 0.12 0.11 0.13 0.19 0.17 0.11 0.09 0.08 0.08 0.07 0.08 0.15 0.14 0.09 0.17 0.26 0.17 0.12 0.11 0.10 0.07 0.06 0.06 0.04
0.01 0.01 0.01 0.00 0.00 0.01 0.01 0.02 0.02 0.03 0.03 0.04 0.05 0.05 0.03 0.03 0.04 0.05 0.06 0.08 0.08 0.09 0.12 0.13 0.11 0.10 0.09 0.08 0.07 0.06 0.08 0.10 0.07 0.13 0.21 0.18 0.15 0.13 0.10 0.07 0.06 0.05 0.04
0.01 0.01 0.01 0.01 0.00 0.01 0.01 0.01 0.02 0.03 0.03 0.05 0.07 0.05 0.03 0.03 0.03 0.03 0.04 0.05 0.06 0.07 0.07 0.09 0.10 0.10 0.09 0.07 0.08 0.07 0.06 0.07 0.05 0.07 0.10 0.11 0.10 0.10 0.09 0.07 0.05 0.05 0.04
0.02 0.02 0.02 0.01 0.00 0.01 0.01 0.01 0.02 0.03 0.04 0.04 0.04 0.03 0.02 0.02 0.02 0.02 0.03 0.03 0.04 0.04 0.04 0.05 0.07 0.10 0.09 0.07 0.09 0.08 0.07 0.08 0.05 0.05 0.04 0.06 0.06 0.06 0.07 0.06 0.04 0.04 0.04
0.04 0.04 0.03 0.02 0.01 0.01 0.01 0.01 0.02 0.03 0.03 0.04 0.04 0.03 0.02 0.02 0.02 0.02 0.02 0.03 0.03 0.04 0.04 0.04 0.05 0.07 0.07 0.06 0.09 0.09 0.11 0.11 0.08 0.06 0.04 0.03 0.04 0.04 0.04 0.05 0.06 0.05 0.05
0.06 0.05 0.04 0.02 0.01 0.01 0.02 0.02 0.03 0.03 0.04 0.03 0.04 0.05 0.03 0.02 0.02 0.03 0.03 0.03 0.03 0.03 0.05 0.05 0.05 0.07 0.07 0.05 0.07 0.08 0.12 0.14 0.12 0.09 0.07 0.05 0.03 0.03 0.03 0.03 0.03 0.04 0.05
0.06 0.07 0.05 0.02 0.01 0.01 0.02 0.02 0.03 0.04 0.05 0.04 0.05 0.07 0.05 0.05 0.04 0.04 0.04 0.04 0.04 0.04 0.06 0.07 0.05 0.06 0.06 0.04 0.05 0.05 0.07 0.11 0.14 0.14 0.09 0.10 0.09 0.06 0.04 0.03 0.03 0.03 0.03
0.05 0.04 0.04 0.02 0.01 0.01 0.01 0.01 0.02 0.04 0.05 0.05 0.06 0.06 0.07 0.06 0.05 0.06 0.05 0.05 0.05 0.04 0.05 0.05 0.05 0.06 0.07 0.04 0.05 0.05 0.04 0.07 0.11 0.13 0.10 0.13 0.16 0.10 0.06 0.05 0.04 0.04 0.04
0.05 0.06 0.06 0.04 0.03 0.02 0.02 0.01 0.02 0.03 0.04 0.05 0.05 0.05 0.06 0.06 0.05 0.05 0.06 0.05 0.04 0.03 0.04 0.04 0.03 0.05 0.07 0.05 0.04 0.05 0.05 0.05 0.06 0.07 0.07 0.09 0.15 0.11 0.08 0.08 0.06 0.05 0.05
0.07 0.08 0.11 0.09 0.05 0.04 0.03 0.02 0.02 0.03 0.05 0.04 0.03 0.02 0.03 0.04 0.06 0.06 0.07 0.08 0.06 0.04 0.03 0.03 0.02 0.03 0.05 0.06 0.06 0.06 0.06 0.05 0.06 0.06 0.07 0.06 0.07 0.07 0.06 0.06 0.06 0.05 0.06
MSLP
1007.79 1007.19 1006.80 1006.67 1006.75 1006.98 1007.24 1007.46 1007.56 1007.54 1007.42 1007.26 1007.14 1007.11 1007.18 1007.35 1007.56 1007.76 1007.90 1007.95 1007.90 1007.78 1007.64 1007.53 1007.49 1007.57 1007.76 1008.07 1008.48 1008.95 1009.47 1010.01 1010.55 1011.08 1011.57 1012.01 1012.39 1012.72 1012.98 1013.18 1013.36 1013.51 1013.66
1007.59 1007.10 1006.79 1006.72 1006.85 1007.08 1007.33 1007.51 1007.58 1007.52 1007.38 1007.22 1007.12 1007.11 1007.22 1007.40 1007.62 1007.81 1007.93 1007.94 1007.86 1007.69 1007.50 1007.34 1007.26 1007.30 1007.46 1007.75 1008.16 1008.67 1009.25 1009.87 1010.50 1011.11 1011.68 1012.18 1012.59 1012.92 1013.16 1013.34 1013.48 1013.62 1013.78
1007.15 1006.78 1006.59 1006.61 1006.81 1007.09 1007.36 1007.54 1007.60 1007.54 1007.42 1007.28 1007.19 1007.20 1007.30 1007.48 1007.67 1007.83 1007.90 1007.87 1007.73 1007.53 1007.31 1007.12 1007.01 1007.02 1007.17 1007.46 1007.89 1008.43 1009.06 1009.75 1010.47 1011.17 1011.81 1012.35 1012.79 1013.11 1013.34 1013.50 1013.63 1013.77 1013.94
1006.53 1006.29 1006.23 1006.38 1006.66 1007.00 1007.32 1007.53 1007.62 1007.59 1007.49 1007.38 1007.31 1007.33 1007.43 1007.57 1007.72 1007.82 1007.84 1007.75 1007.58 1007.35 1007.12 1006.93 1006.82 1006.83 1006.99 1007.29 1007.73 1008.30 1008.98 1009.74 1010.52 1011.28 1011.98 1012.56 1013.01 1013.33 1013.54 1013.69 1013.82 1013.97 1014.17
1005.86 1005.76 1005.84 1006.09 1006.46 1006.87 1007.23 1007.48 1007.60 1007.61 1007.54 1007.47 1007.43 1007.46 1007.54 1007.66 1007.75 1007.80 1007.76 1007.63 1007.44 1007.21 1007.00 1006.83 1006.76 1006.80 1006.98 1007.30 1007.76 1008.36 1009.07 1009.86 1010.68 1011.49 1012.21 1012.81 1013.27 1013.58 1013.79 1013.92 1014.05 1014.22 1014.45
1005.32 1005.34 1005.53 1005.87 1006.30 1006.75 1007.13 1007.39 1007.53 1007.56 1007.54 1007.50 1007.50 1007.54 1007.62 1007.70 1007.76 1007.76 1007.69 1007.54 1007.36 1007.16 1006.99 1006.89 1006.87 1006.96 1007.17 1007.51 1007.99 1008.60 1009.32 1010.12 1010.96 1011.77 1012.50 1013.11 1013.56 1013.87 1014.06 1014.19 1014.32 1014.50 1014.75
1005.06 1005.18 1005.44 1005.83 1006.27 1006.69 1007.04 1007.28 1007.40 1007.44 1007.44 1007.44 1007.47 1007.54 1007.63 1007.71 1007.75 1007.72 1007.64 1007.50 1007.35 1007.21 1007.11 1007.09 1007.14 1007.30 1007.55 1007.92 1008.41 1009.01 1009.72 1010.50 1011.32 1012.12 1012.84 1013.43 1013.87 1014.16 1014.34 1014.47 1014.60 1014.79 1015.06
1005.17 1005.36 1005.65 1006.03 1006.42 1006.76 1007.02 1007.18 1007.24 1007.26 1007.26 1007.29 1007.36 1007.46 1007.57 1007.66 1007.70 1007.67 1007.60 1007.50 1007.40 1007.33 1007.33 1007.39 1007.54 1007.77 1008.08 1008.47 1008.95 1009.54 1010.21 1010.95 1011.73 1012.49 1013.17 1013.74 1014.16 1014.45 1014.62 1014.75 1014.88 1015.07 1015.35
1005.66 1005.90 1006.18 1006.49 1006.77 1006.98 1007.09 1007.12 1007.09 1007.05 1007.04 1007.08 1007.18 1007.31 1007.45 1007.56 1007.61 1007.60 1007.55 1007.49 1007.46 1007.48 1007.57 1007.74 1007.99 1008.29 1008.66 1009.07 1009.55 1010.10 1010.73 1011.41 1012.13 1012.84 1013.48 1014.02 1014.42 1014.70 1014.88 1015.01 1015.15 1015.34 1015.62
1006.45 1006.70 1006.95 1007.16 1007.29 1007.32 1007.26 1007.14 1006.99 1006.88 1006.83 1006.88 1007.00 1007.16 1007.32 1007.44 1007.50 1007.51 1007.48 1007.46 1007.49 1007.59 1007.78 1008.06 1008.40 1008.79 1009.21 1009.65 1010.13 1010.65 1011.22 1011.84 1012.49 1013.13 1013.73 1014.23 1014.62 1014.90 1015.10 1015.25 1015.41 1015.62 1015.90
1007.37 1007.62 1007.81 1007.91 1007.88 1007.74 1007.51 1007.23 1006.97 1006.78 1006.70 1006.74 1006.87 1007.04 1007.21 1007.34 1007.40 1007.40 1007.39 1007.40 1007.48 1007.65 1007.93 1008.30 1008.74 1009.21 1009.69 1010.17 1010.64 1011.14 1011.66 1012.21 1012.79 1013.37 1013.92 1014.39 1014.78 1015.07 1015.29 1015.48 1015.67 1015.91 1016.20
1008.25 1008.49 1008.62 1008.61 1008.45 1008.16 1007.79 1007.39 1007.04 1006.80 1006.70 1006.73 1006.85 1007.02 1007.17 1007.28 1007.31 1007.30 1007.28 1007.31 1007.42 1007.66 1008.01 1008.47 1009.00 1009.55 1010.09 1010.60 1011.09 1011.56 1012.04 1012.54 1013.05 1013.57 1014.06 1014.51 1014.89 1015.21 1015.47 1015.70 1015.95 1016.22 1016.54
1008.93 1009.15 1009.23 1009.14 1008.89 1008.50 1008.04 1007.59 1007.20 1006.94 1006.82 1006.85 1006.96 1007.10 1007.22 1007.28 1007.28 1007.23 1007.20 1007.22 1007.36 1007.64 1008.06 1008.59 1009.20 1009.82 1010.42 1010.97 1011.47 1011.94 1012.38 1012.83 1013.28 1013.74 1014.19 1014.62 1015.00 1015.34 1015.65 1015.94 1016.24 1016.56 1016.92
1009.33 1009.52 1009.56 1009.43 1009.13 1008.72 1008.24 1007.79 1007.41 1007.17 1007.07 1007.09 1007.18 1007.29 1007.36 1007.36 1007.30 1007.22 1007.15 1007.17 1007.33 1007.65 1008.12 1008.71 1009.38 1010.07 1010.72 1011.31 1011.83 1012.29 1012.71 1013.11 1013.52 1013.93 1014.34 1014.74 1015.12 1015.49 1015.83 1016.18 1016.54 1016.92 1017.32
1009.45 1009.60 1009.61 1009.46 1009.17 1008.78 1008.36 1007.97 1007.66 1007.47 1007.40 1007.43 1007.50 1007.56 1007.56 1007.50 1007.39 1007.26 1007.17 1007.19 1007.37 1007.72 1008.23 1008.88 1009.59 1010.32 1011.01 1011.63 1012.17 1012.63 1013.03 1013.41 1013.78 1014.14 1014.52 1014.90 1015.28 1015.66 1016.04 1016.43 1016.84 1017.27 1017.72
1009.37 1009.46 1009.44 1009.30 1009.05 1008.74 1008.41 1008.12 1007.92 1007.80 1007.78 1007.81 1007.85 1007.85 1007.79 1007.67 1007.51 1007.35 1007.26 1007.30 1007.50 1007.89 1008.43 1009.10 1009.85 1010.60 1011.31 1011.94 1012.49 1012.96 1013.36 1013.72 1014.07 1014.41 1014.76 1015.12 1015.48 1015.87 1016.27 1016.69 1017.14 1017.60 1018.07
1009.23 1009.25 1009.19 1009.06 1008.86 1008.65 1008.44 1008.27 1008.17 1008.14 1008.15 1008.17 1008.18 1008.13 1008.01 1007.84 1007.65 1007.48 1007.41 1007.48 1007.72 1008.13 1008.70 1009.39 1010.13 1010.88 1011.59 1012.23 1012.78 1013.26 1013.67 1014.04 1014.38 1014.71 1015.04 1015.39 1015.74 1016.13 1016.53 1016.96 1017.42 1017.90 1018.38
1009.17 1009.10 1008.99 1008.86 1008.72 1008.59 1008.50 1008.44 1008.44 1008.46 1008.50 1008.51 1008.46 1008.35 1008.18 1007.98 1007.77 1007.63 1007.59 1007.71 1007.99 1008.43 1009.02 1009.69 1010.42 1011.14 1011.83 1012.46 1013.01 1013.50 1013.93 1014.33 1014.69 1015.03 1015.37 1015.71 1016.06 1016.43 1016.82 1017.25 1017.70 1018.17 1018.65
1009.29 1009.12 1008.96 1008.82 1008.71 1008.65 1008.63 1008.67 1008.73 1008.79 1008.82 1008.80 1008.70 1008.53 1008.31 1008.08 1007.89 1007.77 1007.79 1007.96 1008.28 1008.75 1009.33 1009.98 1010.66 1011.34 1011.99 1012.59 1013.15 1013.66 1014.13 1014.57 1014.97 1015.36 1015.72 1016.07 1016.42 1016.78 1017.15 1017.56 1017.98 1018.43 1018.89
1009.62 1009.36 1009.14 1008.97 1008.87 1008.84 1008.88 1008.96 1009.06 1009.13 1009.14 1009.06 1008.91 1008.68 1008.42 1008.18 1007.99 1007.92 1007.99 1008.20 1008.56 1009.04 1009.59 1010.20 1010.82 1011.44 1012.04 1012.62 1013.17 1013.71 1014.24 1014.74 1015.22 1015.67 1016.08 1016.46 1016.82 1017.16 1017.52 1017.90 1018.30 1018.71 1019.14
1010.15 1009.82 1009.53 1009.32 1009.20 1009.18 1009.23 1009.34 1009.43 1009.49 1009.46 1009.34 1009.12 1008.84 1008.55 1008.30 1008.13 1008.09 1008.20 1008.45 1008.82 1009.29 1009.80 1010.34 1010.89 1011.43 1011.98 1012.53 1013.09 1013.67 1014.26 1014.85 1015.41 1015.94 1016.42 1016.84 1017.22 1017.57 1017.91 1018.26 1018.63 1019.01 1019.41
1010.80 1010.40 1010.06 1009.80 1009.65 1009.62 1009.66 1009.76 1009.85 1009.88 1009.82 1009.64 1009.38 1009.06 1008.74 1008.48 1008.33 1008.31 1008.44 1008.70 1009.06 1009.49 1009.95 1010.41 1010.87 1011.34 1011.83 1012.35 1012.93 1013.55 1014.21 1014.89 1015.55 1016.16 1016.71 1017.18 1017.60 1017.96 1018.30 1018.63 1018.97 1019.33 1019.69
1011.48 1011.05 1010.65 1010.34 1010.16 1010.09 1010.12 1010.21 1010.28 1010.29 1010.21 1010.01 1009.71 1009.37 1009.04 1008.77 1008.62 1008.60 1008.73 1008.97 1009.30 1009.67 1010.05 1010.42 1010.80 1011.19 1011.62 1012.13 1012.71 1013.38 1014.10 1014.86 1015.61 1016.30 1016.93 1017.46 1017.91 1018.29 1018.63 1018.95 1019.28 1019.62 1019.97
1012.11 1011.66 1011.22 1010.87 1010.64 1010.54 1010.56 1010.63 1010.70 1010.71 1010.62 1010.42 1010.12 1009.77 1009.44 1009.17 1009.00 1008.97 1009.07 1009.27 1009.54 1009.83 1010.13 1010.41 1010.70 1011.02 1011.41 1011.89 1012.48 1013.18 1013.95 1014.77 1015.59 1016.35 1017.03 1017.62 1018.10 1018.51 1018.86 1019.19 1019.52 1019.85 1020.19
1012.66 1012.18 1011.71 1011.32 1011.06 1010.93 1010.93 1011.00 1011.08 1011.11 1011.04 1010.86 1010.58 1010.25 1009.92 1009.65 1009.47 1009.41 1009.46 1009.61 1009.80 1010.00 1010.21 1010.41 1010.62 1010.88 1011.22 1011.67 1012.26 1012.96 1013.77 1014.62 1015.48 1016.28 1017.01 1017.62 1018.14 1018.58 1018.95 1019.30 1019.63 1019.97 1020.31
1013.10 1012.61 1012.11 1011.69 1011.39 1011.25 1011.24 1011.31 1011.41 1011.46 1011.43 1011.29 1011.05 1010.75 1010.44 1010.16 1009.97 1009.88 1009.88 1009.95 1010.06 1010.18 1010.30 1010.42 1010.56 1010.76 1011.06 1011.49 1012.05 1012.75 1013.55 1014.40 1015.27 1016.09 1016.83 1017.47 1018.02 1018.48 1018.89 1019.26 1019.62 1019.97 1020.32
Thickness
5787 5788 5788 5787 5785 5784 5782 5780 5779 5778 5777 5776 5775 5774 5773 5773 5772 5772 5771 5771 5771 5771 5770 5769 5769 5768 5768 5767 5767 5766 5766 5766 5765 5765 5764 5763 5763 5761 5760 5759 5758 5757 5756
5792 5789 5788 5786 5784 5783 5781 5779 5778 5777 5776 5774 5773 5772 5772 5771 5770 5770 5769 5769 5769 5768 5768 5767 5768 5767 5766 5765 5765 5765 5764 5764 5763 5763 5763 5762 5761 5760 5759 5758 5757 5755 5754
5793 5790 5788 5786 5784 5782 5780 5778 5776 5775 5774 5772 5772 5771 5770 5769 5769 5768 5768 5767 5767 5767 5766 5766 5766 5766 5764 5763 5763 5762 5762 5762 5762 5761 5760 5760 5759 5758 5757 5756 5755 5754 5753
5794 5791 5788 5786 5783 5781 5779 5777 5775 5774 5772 5771 5770 5769 5768 5768 5767 5766 5766 5766 5765 5765 5765 5764 5764 5763 5763 5762 5761 5761 5760 5760 5760 5759 5758 5758 5757 5757 5756 5755 5754 5752 5751
5793 5790 5787 5784 5782 5780 5778 5776 5774 5772 5771 5769 5768 5767 5766 5766 5766 5765 5765 5764 5763 5763 5763 5763 5762 5761 5761 5761 5760 5759 5758 5758 5758 5757 5756 5755 5755 5755 5755 5754 5752 5751 5750
5791 5788 5785 5782 5781 5779 5777 5775 5773 5771 5769 5768 5766 5765 5765 5764 5764 5764 5763 5762 5762 5761 5761 5761 5760 5760 5759 5758 5758 5757 5757 5756 5756 5755 5754 5753 5753 5753 5753 5752 5751 5750 5748
5790 5787 5784 5782 5779 5777 5775 5773 5771 5770 5768 5766 5765 5764 5763 5763 5762 5762 5761 5761 5760 5760 5760 5759 5758 5757 5757 5756 5756 5756 5755 5755 5755 5754 5753 5752 5752 5752 5751 5750 5749 5748 5747
5791 5786 5783 5781 5778 5776 5774 5772 5770 5769 5767 5765 5764 5763 5762 5762 5761 5760 5760 5759 5759 5758 5758 5757 5756 5755 5755 5755 5754 5754 5754 5754 5753 5753 5752 5751 5751 5751 5750 5749 5748 5746 5745
5790 5786 5783 5780 5778 5775 5774 5772 5770 5768 5766 5764 5763 5762 5761 5760 5759 5759 5758 5757 5757 5757 5756 5755 5754 5753 5752 5753 5753 5753 5753 5753 5753 5752 5752 5751 5750 5750 5749 5747 5746 5744 5743
5786 5784 5782 5779 5777 5774 5772 5770 5769 5767 5765 5763 5762 5761 5760 5759 5758 5757 5757 5756 5756 5755 5754 5753 5753 5752 5751 5751 5751 5752 5752 5752 5751 5751 5750 5750 5749 5748 5747 5746 5744 5743 5742
5780 5780 5780 5778 5776 5773 5771 5769 5767 5765 5763 5762 5760 5760 5759 5758 5757 5756 5755 5755 5754 5753 5753 5752 5752 5751 5750 5749 5749 5750 5750 5749 5749 5749 5748 5747 5747 5746 5745 5744 5743 5742 5740
5777 5776 5777 5776 5774 5772 5770 5768 5766 5763 5761 5760 5759 5759 5758 5757 5756 5755 5754 5753 5753 5752 5751 5751 5751 5750 5749 5748 5747 5747 5747 5747 5747 5746 5746 5745 5745 5744 5743 5742 5741 5740 5738
5779 5776 5774 5774 5773 5772 5770 5767 5764 5762 5760 5759 5758 5757 5756 5755 5754 5753 5752 5752 5751 5751 5750 5751 5750 5749 5748 5746 5745 5744 5744 5744 5744 5744 5743 5743 5742 5742 5741 5740 5739 5738 5737
5778 5776 5776 5774 5772 5771 5768 5766 5763 5761 5759 5757 5756 5756 5754 5753 5752 5751 5750 5749 5749 5749 5750 5751 5749 5748 5746 5745 5743 5742 5742 5741 5741 5741 5740 5740 5740 5739 5738 5737 5736 5736 5734
5779 5777 5774 5773 5770 5769 5767 5764 5762 5760 5757 5756 5755 5754 5753 5752 5750 5750 5749 5748 5748 5747 5748 5748 5746 5745 5744 5743 5742 5741 5739 5739 5738 5738 5738 5738 5737 5737 5736 5735 5734 5733 5732
5778 5776 5775 5771 5770 5767 5765 5763 5760 5758 5756 5755 5754 5753 5752 5751 5750 5748 5748 5747 5746 5746 5745 5745 5744 5743 5742 5742 5741 5740 5738 5737 5736 5735 5735 5735 5735 5734 5734 5732 5732 5731 5730
5779 5777 5775 5772 5769 5766 5764 5762 5759 5756 5754 5753 5752 5751 5750 5749 5748 5747 5745 5744 5744 5744 5744 5743 5742 5741 5740 5739 5738 5737 5736 5735 5734 5733 5734 5733 5732 5732 5731 5730 5729 5729 5728
5779 5776 5773 5772 5767 5764 5762 5760 5757 5754 5752 5750 5750 5749 5748 5748 5747 5745 5743 5742 5742 5742 5742 5740 5739 5738 5736 5735 5734 5734 5733 5732 5731 5731 5731 5731 5730 5729 5728 5727 5726 5726 5725
5778 5775 5770 5768 5764 5761 5759 5757 5754 5751 5749 5748 5747 5746 5746 5746 5745 5744 5742 5741 5741 5740 5738 5738 5735 5734 5732 5731 5730 5730 5730 5729 5729 5729 5728 5728 5728 5727 5726 5725 5724 5723 5723
5775 5772 5768 5764 5761 5759 5756 5752 5749 5747 5745 5745 5744 5743 5743 5743 5742 5741 5739 5738 5738 5736 5734 5734 5732 5731 5730 5728 5728 5726 5726 5726 5726 5727 5726 5726 5725 5724 5724 5722 5721 5721 5720
5769 5766 5762 5759 5756 5754 5751 5746 5743 5740 5740 5739 5739 5739 5739 5739 5738 5737 5736 5735 5734 5732 5731 5731 5729 5727 5726 5726 5722 5719 5720 5722 5723 5723 5724 5723 5722 5722 5721 5720 5719 5718 5718
5763 5761 5758 5755 5753 5751 5748 5744 5741 5738 5736 5736 5735 5735 5735 5735 5735 5735 5733 5732 5731 5729 5728 5727 5726 5723 5722 5723 5719 5713 5709 5710 5715 5719 5720 5720 5719 5719 5718 5717 5717 5716 5716
5760 5757 5756 5753 5751 5748 5745 5741 5737 5734 5732 5730 5729 5729 5730 5731 5731 5731 5731 5730 5728 5727 5724 5723 5723 5720 5717 5719 5719 5714 5707 5702 5706 5711 5715 5716 5716 5716 5715 5715 5714 5714 5713
5759 5756 5753 5750 5747 5744 5742 5737 5732 5728 5724 5724 5724 5724 5725 5726 5726 5727 5727 5726 5725 5724 5722 5722 5721 5720 5717 5714 5715 5716 5715 5712 5705 5703 5708 5711 5713 5713 5713 5713 5712 5712 5711
5755 5752 5748 5745 5742 5740 5738 5733 5729 5725 5723 5722 5721 5721 5720 5721 5722 5722 5722 5721 5720 5720 5720 5719 5719 5718 5716 5714 5712 5712 5711 5710 5709 5703 5700 5704 5707 5710 5711 5711 5710 5710 5710
5750 5747 5743 5739 5735 5734 5732 5729 5726 5722 5720 5717 5716 5715 5715 5715 5717 5718 5718 5717 5717 5717 5717 5716 5716 5715 5714 5713 5712 5711 5709 5706 5704 5702 5699 5699 5700 5704 5708 5709 5709 5709 5708